Aérodrome :
LOGIN :

S'inscrire | Disclaimer

   EN    FR    IT 

 










Légende :    VFR   VFR Marginal   IFR   IFR Intensif   IFR Très Intensif
Visi : 
Plafond : 
>= 8 km
>= 3000ft
5 à 8 km
1000 à 3000 ft
1500m à 5 km
500 à 1000 ft
800 à 1500m
200 à 500 ft
< 800m
< 200 ft
Symboles :   Orages  Brouillard  Fortes neiges  Fortes précipitations  Vent > 20 kt
SIGMETs :   Divers  Orages  Givrage  Turbulence  Onde Orograph.  Cendres Volcan.







- Altitude de l'aérodrome : 160 ft
- Code IATA : LRT
- Voir les cartes d'approche


LFRH - Lorient Lann Bihoue

DERNIER METAR :
  • 200500Z AUTO 28003KT CAVOK 12/12 Q1017 NOSIG

METARs EXPIRÉS :
  • 200430Z AUTO 30004KT CAVOK 12/12 Q1017 NOSIG
  • 200400Z AUTO 28003KT CAVOK 12/12 Q1017 NOSIG
  • 200330Z AUTO 27004KT CAVOK 12/11 Q1017 BECMG 33010KT
  • 200300Z AUTO 28003KT CAVOK 12/12 Q1017 NOSIG
  • 200230Z AUTO 28003KT CAVOK 12/11 Q1017 NOSIG
  • 200200Z AUTO 28004KT CAVOK 12/12 Q1017 NOSIG

TAF TAF LFRH
Valide du 20 à 00h jusqu'au 21 à 00h UTC


192300Z 2000/2024 33010KT CAVOK
BECMG 2012/2014 27015G25KT
BECMG 2020/2022 31010KT
Pas de NOTAMs connus pour ce terrain.



MET'MAP, la Météo Aéronautique d'un coup d'oeil ! - Copyright ORBIFLY Décembre 2007 - Disclaimer

ORBIFLY MET'MAP TEAM :

Programmation & Développement : Alexandra Zaïnal
Conception & Développement : Baudouin d'Aumeries
Co-Programmation & Développement : Marc-Olivier Méhu
Soutien technique & logistique : Manuel Goepfert

Contact : metmap@orbifly.com




SOURCES & CREDITS :

   NOAA